User: anonymous   Login
Location: Radford
(37.1320°N, 80.5770°W)
Time: 04:42:17
(UTC-04:00)
Language:

Okean 1-7 - Orbit

View from above orbital plane
View from above orbital plane
View from above satellite
View from above satellite

Ground track
Ground track

The orbit data is extracted from the following two-line orbital elements,

1 23317U 94066A   16270.21090737  .00000484  00000-0  50817-4 0  9997
2 23317  82.5408   6.5217 0018982 217.3037 142.6863 14.87256840186704
Epoch (UTC): 26 September 2016 05:03:42
Eccentricity: 0.0018982
inclination: 82.5408°
perigee height: 593 km
apogee height: 620 km
right ascension of ascending node: 6.5217°
argument of perigee: 217.3037°
revolutions per day: 14.87256840
mean anomaly at epoch: 142.6863°
orbit number at epoch: 18670

The dashed part of the orbit path shows where the satellite is in the earth's shadow,  

DLR